EW8474 Weather Reports


time (UTC)temp
C
wind
direction
speed
KPH
gust
KPH
rain 1hr
cm
rain 24hr
cm
rain mn
cm
humidity
%
barometer
mb
20260505100054 12 188 0.0 3.2 0.00 0.00 0.00 88 1011.3
20260505094542 11 150 0.0 0.0 0.00 0.00 0.00 87 1011.1
20260505093035 11 147 0.0 0.0 0.00 0.00 0.00 86 1011.0
20260505091539 12 158 0.0 0.0 0.00 0.00 0.00 86 1010.9
20260505090032 12 123 0.0 0.0 0.00 0.00 0.00 85 1010.8
20260505084529 12 123 0.0 1.6 0.00 0.00 0.00 83 1010.6
20260505083034 12 8 0.0 0.0 0.00 0.00 0.00 83 1010.5
20260505081524 12 8 0.0 0.0 0.00 0.00 0.00 83 1010.4
20260505080027 13 8 0.0 0.0 0.00 0.00 0.00 81 1010.4
20260505074519 13 285 0.0 0.0 0.00 0.00 0.00 80 1010.3
20260505073016 13 277 0.0 0.0 0.00 0.00 0.00 81 1010.1
20260505071517 13 277 0.0 0.0 0.00 0.00 0.00 78 1009.9
20260505070011 14 277 0.0 0.0 0.00 0.00 0.00 77 1009.7
20260505064510 14 34 0.0 0.0 0.00 0.00 0.00 77 1009.6
20260505063011 15 259 0.0 0.0 0.00 0.00 0.00 80 1009.5
20260505061507 15 243 0.0 0.0 0.00 0.00 0.00 78 1009.4
20260505060006 15 243 0.0 0.0 0.00 0.00 0.00 75 1009.2
20260505054505 16 291 0.0 4.8 0.00 0.00 0.00 73 1009.0
20260505053005 16 304 0.0 0.0 0.00 0.00 0.00 75 1009.0
20260505051503 16 278 0.0 0.0 0.00 0.00 0.00 76 1008.7
20260505041505 17 334 0.0 0.0 0.00 0.00 0.00 72 1008.2
20260505040105 17 334 0.0 0.0 0.00 0.00 0.00 71 1008.0
20260505034601 17 239 0.0 4.8 0.00 0.00 0.00 70 1007.9
20260505033059 18 288 3.2 6.4 0.00 0.00 0.00 67 1007.7
20260505031605 18 360 1.6 6.4 0.00 0.00 0.00 64 1007.8
20260505030106 19 328 4.8 12.9 0.00 0.00 0.00 62 1007.7
20260505024612 20 288 4.8 12.9 0.00 0.00 0.00 60 1007.5
20260505023100 20 314 0.0 12.9 0.00 0.00 0.00 61 1007.5
20260505021558 20 277 4.8 11.3 0.00 0.00 0.00 59 1007.4
20260505020103 20 309 8.0 20.9 0.00 0.00 0.00 58 1007.4
20260505014555 20 284 3.2 12.9 0.00 0.00 0.00 62 1007.4
20260505013055 20 278 4.8 17.7 0.00 0.00 0.00 60 1007.5
20260505011553 20 249 6.4 12.9 0.00 0.00 0.00 56 1007.5
20260505010109 21 301 6.4 12.9 0.00 0.00 0.00 55 1007.5
20260505004553 21 259 3.2 8.0 0.00 0.00 0.00 55 1007.5
20260505003053 22 314 3.2 11.3 0.00 0.00 0.00 55 1007.4
20260505001551 23 316 3.2 9.7 0.00 0.00 0.00 54 1007.3
20260505000058 23 214 6.4 11.3 0.00 0.00 0.00 52 1007.3
20260504234551 23 308 3.2 8.0 0.00 0.00 0.00 53 1007.5
20260504233053 24 305 1.6 8.0 0.00 0.00 0.00 54 1007.5
20260504231546 24 314 4.8 11.3 0.00 0.00 0.00 52 1007.6
20260504230107 25 313 4.8 9.7 0.00 0.00 0.00 47 1007.5
20260504224558 24 296 1.6 8.0 0.00 0.00 0.00 51 1007.6
20260504223040 24 342 3.2 11.3 0.00 0.00 0.00 49 1007.7
20260504221539 23 256 3.2 8.0 0.00 0.00 0.00 49 1007.9
20260504220040 23 281 1.6 11.3 0.00 0.00 0.00 47 1008.1
20260504214542 23 297 3.2 8.0 0.00 0.00 0.00 43 1008.3
20260504213035 23 293 3.2 11.3 0.00 0.00 0.00 42 1008.3
20260504211532 23 285 3.2 11.3 0.00 0.00 0.00 41 1008.4
20260504210029 23 318 4.8 11.3 0.00 0.00 0.00 42 1008.5
20260504204527 23 284 1.6 11.3 0.00 0.00 0.00 44 1008.5
20260504203023 23 313 1.6 9.7 0.00 0.00 0.00 45 1008.6
20260504201522 22 293 3.2 9.7 0.00 0.00 0.00 49 1008.6
20260504200021 22 311 3.2 9.7 0.00 0.00 0.00 49 1008.8
20260504194519 22 242 0.0 9.7 0.00 0.00 0.00 49 1008.7
20260504193019 22 292 3.2 8.0 0.00 0.00 0.00 49 1008.8
20260504191515 22 327 3.2 6.4 0.00 0.00 0.00 51 1008.8
20260504190015 22 309 3.2 8.0 0.00 0.00 0.00 51 1008.9
20260504184612 21 217 1.6 9.7 0.00 0.00 0.00 53 1008.9
20260504183008 19 309 3.2 9.7 0.00 0.00 0.00 57 1009.0
20260504181507 18 288 3.2 8.0 0.00 0.00 0.00 62 1009.1
20260504180006 19 309 3.2 9.7 0.00 0.00 0.00 62 1009.0
20260504174505 20 272 1.6 6.4 0.00 0.00 0.00 57 1008.8
20260504173003 19 221 0.0 4.8 0.00 0.00 0.00 62 1008.9
20260504171601 19 316 1.6 6.4 0.00 0.00 0.00 63 1009.0
20260504171502 19 261 1.6 6.4 0.00 0.00 0.00 61 1009.0